Regional Weather Roundup
Issued by NWS

Home | Current Version | Previous Version | Graphics & Text | Print | Product List | Glossary On
Versions: 1 2 3 4 5 6 7 8 9 10 11 12 13 14 15 16 17 18 19 20 21 22 23 24 25 26 27 28 29 30 31 32 33 34 35 36 37 38 39 40 41 42 43 44 45 46 47 48 49 50
000
ASUS43 KBIS 230502
RWRND

NORTH DAKOTA REGIONAL WEATHER ROUNDUP
NATIONAL WEATHER SERVICE BISMARCK ND
1200 AM CDT FRI JUN 23 2017

NOTE: "FAIR" INDICATES FEW OR NO CLOUDS BELOW 12,000 FEET WITH NO
SIGNIFICANT WEATHER AND/OR OBSTRUCTIONS TO VISIBILITY.


NDZ001>003-009>011-017-230600-
NORTHWEST NORTH DAKOTA

CITY           SKY/WX    TMP DP  RH WIND       PRES   REMARKS
WILLISTON      CLOUDY    55  48  77 NW24G32   30.03R
MINOT          CLOUDY    59  51  75 W24G33    29.86R
MINOT AFB      CLOUDY    58  51  75 NW30G39   29.85R
$$

NDZ018>021-031>035-040>046-230600-
SOUTHWEST NORTH DAKOTA

CITY           SKY/WX    TMP DP  RH WIND       PRES   REMARKS
BISMARCK       MOCLDY    61  46  57 W15G23    29.91R
DICKINSON      CLOUDY    54  46  74 NW26G36   30.00R
GARRISON         N/A     55  52  89 NW26G32   29.90R
HETTINGER ARPT MOCLDY    53  43  68 NW17      30.05R
$$

NDZ004>008-012>016-024-026-027-054-230600-
NORTHEAST NORTH DAKOTA

CITY           SKY/WX    TMP DP  RH WIND       PRES   REMARKS
GRAND FORKS    CLEAR     60  48  64 W13       29.69F
GRND FRKS AFB  CLEAR     60  47  62 NW16G29   29.70F
DEVILS LAKE    PTCLDY    59  50  72 W18       29.75F
$$

NDZ022-023-025-028>030-036>039-047>053-230600-
SOUTHEAST NORTH DAKOTA

CITY           SKY/WX    TMP DP  RH WIND       PRES   REMARKS
FARGO          PTCLDY    58  41  53 W7        29.73S
JAMESTOWN      CLEAR     60  45  57 NW23      29.80R
$$




USA.gov is the U.S. government's official web portal to all federal, state and local government web resources and services.